Time,TemperatureF,DewpointF,PressureIn,WindDirection,WindDirectionDegrees,WindSpeedMPH,WindSpeedGustMPH,Humidity,HourlyPrecipIn,Conditions,Clouds,dailyrainin,SoftwareType,DateUTC
2013-03-09 00:00:00,59.9,55.2,29.79,SW,225,1.7,2.6,85,0.00,,,0.26,,2013-03-08 23:00:00,
2013-03-09 00:05:00,59.9,55.2,29.79,SW,225,2.6,3.5,85,0.00,,,0.00,,2013-03-08 23:05:00,
2013-03-09 00:10:00,59.9,55.2,29.79,South,180,2.2,3.5,85,0.00,,,0.00,,2013-03-08 23:10:00,
2013-03-09 00:20:00,59.7,55.0,29.79,South,180,3.1,3.5,85,0.00,,,0.00,,2013-03-08 23:20:00,
2013-03-09 00:25:00,59.7,55.0,29.79,South,180,2.6,3.1,85,0.00,,,0.00,,2013-03-08 23:25:00,
2013-03-09 00:30:00,59.7,55.0,29.79,South,180,2.6,4.0,85,0.00,,,0.00,,2013-03-08 23:30:00,
2013-03-09 00:35:00,59.7,55.0,29.79,SE,135,2.6,3.1,85,0.00,,,0.00,,2013-03-08 23:35:00,
2013-03-09 00:40:00,59.7,55.0,29.79,South,180,1.7,1.7,85,0.00,,,0.00,,2013-03-08 23:40:00,
2013-03-09 00:45:00,59.7,55.0,29.79,SE,135,2.2,2.2,85,0.00,,,0.00,,2013-03-08 23:45:00,
2013-03-09 00:50:00,59.7,55.0,29.79,South,180,0.8,0.8,85,0.00,,,0.00,,2013-03-08 23:50:00,
2013-03-09 00:55:00,59.7,55.0,29.79,SE,135,1.7,2.6,85,0.00,,,0.00,,2013-03-08 23:55:00,
2013-03-09 01:00:00,59.7,55.0,29.79,SE,135,0.8,2.6,85,0.00,,,0.00,,2013-03-09 00:00:00,
2013-03-09 01:05:00,59.7,55.0,29.79,SE,135,1.3,2.6,85,0.00,,,0.00,,2013-03-09 00:05:00,
2013-03-09 01:10:00,59.5,54.9,29.79,SE,135,1.7,3.1,85,-99.99,,,0.00,,2013-03-09 00:10:00,
2013-03-09 01:15:00,59.5,54.9,29.79,South,180,0.8,1.3,85,-99.99,,,0.00,,2013-03-09 00:15:00,
2013-03-09 01:25:00,59.5,55.2,29.79,SE,135,0.0,0.0,86,-99.99,,,0.00,,2013-03-09 00:25:00,
2013-03-09 01:30:00,59.5,55.2,29.79,SE,135,0.4,0.0,86,-99.99,,,0.00,,2013-03-09 00:30:00,
2013-03-09 01:35:00,59.5,55.2,29.79,SE,135,0.0,0.0,86,-99.99,,,0.00,,2013-03-09 00:35:00,
2013-03-09 01:40:00,59.7,55.4,29.79,South,180,0.0,0.0,86,-99.99,,,0.00,,2013-03-09 00:40:00,
2013-03-09 01:45:00,59.7,55.0,29.79,South,180,2.6,2.6,85,-99.99,,,0.00,,2013-03-09 00:45:00,
2013-03-09 01:50:00,59.7,55.4,29.82,South,180,2.6,3.5,86,-99.99,,,0.00,,2013-03-09 00:50:00,
2013-03-09 01:55:00,59.7,55.4,29.82,South,180,1.3,1.3,86,-99.99,,,0.00,,2013-03-09 00:55:00,
2013-03-09 02:00:00,59.7,55.4,29.79,South,180,1.3,2.6,86,-99.99,,,0.00,,2013-03-09 01:00:00,
2013-03-09 02:05:00,59.7,55.4,29.79,South,180,1.3,2.6,86,-99.99,,,0.00,,2013-03-09 01:05:00,
2013-03-09 02:10:00,59.7,55.4,29.82,SW,225,0.0,2.2,86,-99.99,,,0.00,,2013-03-09 01:10:00,
2013-03-09 02:15:00,59.9,55.6,29.82,SW,225,1.7,3.1,86,-99.99,,,0.00,,2013-03-09 01:15:00,
2013-03-09 02:20:00,59.9,55.6,29.79,SW,225,1.7,2.6,86,-99.99,,,0.00,,2013-03-09 01:20:00,
2013-03-09 02:25:00,60.1,55.8,29.79,West,270,2.6,4.4,86,-99.99,,,0.00,,2013-03-09 01:25:00,
2013-03-09 02:30:00,60.1,55.8,29.79,West,270,4.4,4.4,86,-99.99,,,0.00,,2013-03-09 01:30:00,
2013-03-09 02:35:00,60.1,55.8,29.79,NW,315,3.5,3.5,86,-99.99,,,0.00,,2013-03-09 01:35:00,
2013-03-09 02:40:00,60.1,55.8,29.82,West,270,5.3,8.5,86,-99.99,,,0.00,,2013-03-09 01:40:00,
2013-03-09 02:45:00,60.1,55.8,29.82,NW,315,2.6,2.6,86,-99.99,,,0.00,,2013-03-09 01:45:00,
2013-03-09 02:50:00,60.1,55.8,29.79,West,270,2.2,7.6,86,-99.99,,,0.00,,2013-03-09 01:50:00,
2013-03-09 02:55:00,60.1,55.8,29.79,West,270,2.2,4.9,86,-99.99,,,0.00,,2013-03-09 01:55:00,
2013-03-09 03:05:00,60.1,55.8,29.79,SW,225,2.2,4.0,86,-99.99,,,0.00,,2013-03-09 02:05:00,
2013-03-09 03:10:00,60.1,56.1,29.79,West,270,1.7,4.9,87,-99.99,,,0.00,,2013-03-09 02:10:00,
2013-03-09 03:20:00,60.1,55.8,29.79,SW,225,1.7,0.0,86,-99.99,,,0.00,,2013-03-09 02:20:00,
2013-03-09 03:30:00,59.9,55.9,29.76,NW,315,1.7,3.1,87,-99.99,,,0.00,,2013-03-09 02:30:00,
2013-03-09 03:35:00,59.9,55.6,29.76,NW,315,1.3,3.1,86,-99.99,,,0.00,,2013-03-09 02:35:00,
2013-03-09 03:40:00,59.9,55.9,29.79,NW,315,0.8,1.3,87,-99.99,,,0.00,,2013-03-09 02:40:00,
2013-03-09 03:45:00,59.7,55.8,29.79,NW,315,1.3,1.3,87,-99.99,,,0.00,,2013-03-09 02:45:00,
2013-03-09 03:50:00,59.7,55.8,29.79,NW,315,0.4,0.8,87,-99.99,,,0.00,,2013-03-09 02:50:00,
2013-03-09 03:55:00,59.7,55.8,29.79,NW,315,0.4,0.0,87,-99.99,,,0.00,,2013-03-09 02:55:00,
2013-03-09 04:00:00,59.7,55.8,29.79,NW,315,0.4,1.7,87,-99.99,,,0.00,,2013-03-09 03:00:00,
2013-03-09 04:05:00,59.7,55.8,29.79,NW,315,0.8,1.3,87,-99.99,,,0.00,,2013-03-09 03:05:00,
2013-03-09 04:10:00,59.7,55.8,29.79,NW,315,0.0,0.0,87,-99.99,,,0.00,,2013-03-09 03:10:00,
2013-03-09 04:15:00,59.7,55.8,29.79,NW,315,0.0,0.0,87,-99.99,,,0.00,,2013-03-09 03:15:00,
2013-03-09 04:20:00,59.7,55.8,29.76,NW,315,0.0,0.0,87,-99.99,,,0.00,,2013-03-09 03:20:00,
2013-03-09 04:25:00,59.5,55.6,29.76,NW,315,0.0,0.0,87,-99.99,,,0.00,,2013-03-09 03:25:00,
2013-03-09 04:30:00,59.5,55.6,29.79,NW,315,0.0,0.0,87,-99.99,,,0.00,,2013-03-09 03:30:00,
2013-03-09 04:35:00,59.5,55.6,29.79,NW,315,0.0,0.0,87,-99.99,,,0.00,,2013-03-09 03:35:00,
2013-03-09 04:40:00,59.5,55.6,29.76,NW,315,0.0,0.0,87,-99.99,,,0.00,,2013-03-09 03:40:00,
2013-03-09 04:45:00,59.5,55.6,29.76,NW,315,0.0,0.0,87,-99.99,,,0.00,,2013-03-09 03:45:00,
2013-03-09 04:50:00,59.4,55.4,29.79,NW,315,0.0,0.0,87,-99.99,,,0.00,,2013-03-09 03:50:00,
2013-03-09 04:55:00,59.4,55.4,29.79,NW,315,0.0,0.0,87,-99.99,,,0.00,,2013-03-09 03:55:00,
2013-03-09 05:00:00,59.2,55.2,29.79,NW,315,1.3,0.0,87,-99.99,,,0.00,,2013-03-09 04:00:00,
2013-03-09 05:05:00,59.2,55.2,29.79,NW,315,1.3,0.0,87,-99.99,,,0.00,,2013-03-09 04:05:00,
2013-03-09 05:10:00,59.0,55.4,29.79,South,180,0.0,0.0,88,-99.99,,,0.00,,2013-03-09 04:10:00,
2013-03-09 05:15:00,59.0,55.4,29.79,South,180,0.0,0.0,88,-99.99,,,0.00,,2013-03-09 04:15:00,
2013-03-09 05:20:00,59.0,55.0,29.79,South,180,0.0,0.0,87,-99.99,,,0.00,,2013-03-09 04:20:00,
2013-03-09 05:25:00,58.8,54.9,29.79,South,180,1.7,0.0,87,-99.99,,,0.00,,2013-03-09 04:25:00,
2013-03-09 05:30:00,58.6,54.7,29.76,SE,135,1.7,1.7,87,-99.99,,,0.00,,2013-03-09 04:30:00,
2013-03-09 05:35:00,58.5,54.9,29.76,SE,135,1.3,1.7,88,-99.99,,,0.00,,2013-03-09 04:35:00,
2013-03-09 05:40:00,58.5,54.5,29.79,South,180,0.8,3.5,87,-99.99,,,0.00,,2013-03-09 04:40:00,
2013-03-09 05:45:00,58.3,54.7,29.79,South,180,0.8,2.6,88,-99.99,,,0.00,,2013-03-09 04:45:00,
2013-03-09 05:50:00,58.3,54.7,29.79,SE,135,2.6,2.6,88,-99.99,,,0.00,,2013-03-09 04:50:00,
2013-03-09 05:55:00,58.3,54.7,29.79,SSW,202,1.3,1.3,88,-99.99,,,0.00,,2013-03-09 04:55:00,
2013-03-09 06:00:00,58.3,54.7,29.79,SW,225,0.8,1.3,88,-99.99,,,0.00,,2013-03-09 05:00:00,
2013-03-09 06:05:00,58.5,54.9,29.79,SW,225,0.0,1.3,88,-99.99,,,0.00,,2013-03-09 05:05:00,
2013-03-09 06:10:00,58.5,54.9,29.82,South,180,0.0,0.0,88,-99.99,,,0.00,,2013-03-09 05:10:00,
2013-03-09 06:15:00,58.3,54.7,29.82,SE,135,0.8,1.3,88,-99.99,,,0.00,,2013-03-09 05:15:00,
2013-03-09 06:20:00,58.1,54.5,29.79,East,90,0.4,0.0,88,-99.99,,,0.00,,2013-03-09 05:20:00,
2013-03-09 06:25:00,58.1,54.5,29.79,SE,135,1.7,2.6,88,-99.99,,,0.00,,2013-03-09 05:25:00,
2013-03-09 06:30:00,58.1,54.5,29.76,SE,135,1.7,4.0,88,-99.99,,,0.00,,2013-03-09 05:30:00,
2013-03-09 06:35:00,58.1,54.5,29.76,South,180,1.3,1.3,88,-99.99,,,0.00,,2013-03-09 05:35:00,
2013-03-09 06:40:00,58.1,54.5,29.82,South,180,0.4,1.7,88,-99.99,,,0.00,,2013-03-09 05:40:00,
2013-03-09 06:45:00,58.1,54.5,29.82,South,180,0.0,0.0,88,-99.99,,,0.00,,2013-03-09 05:45:00,
2013-03-09 06:50:00,58.3,54.7,29.79,South,180,0.0,0.0,88,-99.99,,,0.00,,2013-03-09 05:50:00,
2013-03-09 06:55:00,58.3,54.7,29.79,NE,45,0.8,0.0,88,-99.99,,,0.00,,2013-03-09 05:55:00,
2013-03-09 07:00:00,58.1,54.5,29.79,NE,45,0.0,1.3,88,-99.99,,,0.00,,2013-03-09 06:00:00,
2013-03-09 07:05:00,58.1,54.5,29.79,NE,45,0.4,0.8,88,-99.99,,,0.00,,2013-03-09 06:05:00,
2013-03-09 07:10:00,58.1,54.5,29.82,NE,45,1.3,1.7,88,-99.99,,,0.00,,2013-03-09 06:10:00,
2013-03-09 07:15:00,58.1,54.5,29.82,SE,135,0.8,0.0,88,-99.99,,,0.00,,2013-03-09 06:15:00,
2013-03-09 07:20:00,58.1,54.5,29.82,SE,135,0.4,2.2,88,-99.99,,,0.00,,2013-03-09 06:20:00,
2013-03-09 07:25:00,58.1,54.5,29.82,East,90,0.8,0.8,88,-99.99,,,0.00,,2013-03-09 06:25:00,
2013-03-09 07:30:00,58.3,54.7,29.79,East,90,1.3,2.2,88,-99.99,,,0.00,,2013-03-09 06:30:00,
2013-03-09 07:35:00,58.3,55.0,29.79,East,90,0.0,0.0,89,-99.99,,,0.00,,2013-03-09 06:35:00,
2013-03-09 07:40:00,58.6,55.4,29.82,East,90,0.4,0.0,89,-99.99,,,0.00,,2013-03-09 06:40:00,
2013-03-09 07:45:00,58.6,55.4,29.82,East,90,1.3,1.7,89,-99.99,,,0.00,,2013-03-09 06:45:00,
2013-03-09 07:50:00,58.6,55.4,29.82,East,90,0.4,1.7,89,-99.99,,,0.00,,2013-03-09 06:50:00,
2013-03-09 07:55:00,58.8,55.6,29.82,East,90,1.7,1.7,89,-99.99,,,0.00,,2013-03-09 06:55:00,
2013-03-09 08:05:00,59.0,55.8,29.79,East,90,0.8,0.0,89,-99.99,,,0.00,,2013-03-09 07:05:00,
2013-03-09 08:10:00,59.4,55.9,29.82,East,90,1.7,1.7,89,-99.99,,,0.00,,2013-03-09 07:10:00,
2013-03-09 08:20:00,59.4,55.9,29.82,East,90,0.4,0.0,89,-99.99,,,0.00,,2013-03-09 07:20:00,
2013-03-09 08:25:00,59.4,55.9,29.82,SE,135,0.4,3.1,89,-99.99,,,0.00,,2013-03-09 07:25:00,
2013-03-09 08:30:00,59.5,56.1,29.82,SE,135,1.7,1.7,89,-99.99,,,0.00,,2013-03-09 07:30:00,
2013-03-09 08:35:00,59.5,56.1,29.82,SE,135,1.7,4.0,89,-99.99,,,0.00,,2013-03-09 07:35:00,
2013-03-09 08:45:00,59.9,56.5,29.82,SE,135,1.7,2.2,89,-99.99,,,0.00,,2013-03-09 07:45:00,
2013-03-09 08:50:00,60.1,56.7,29.82,SE,135,1.7,3.5,89,-99.99,,,0.00,,2013-03-09 07:50:00,
2013-03-09 08:55:00,60.3,56.8,29.82,SE,135,0.8,3.5,89,-99.99,,,0.00,,2013-03-09 07:55:00,
2013-03-09 09:00:00,60.4,57.0,29.82,ENE,67,1.3,0.0,89,-99.99,,,0.00,,2013-03-09 08:00:00,
2013-03-09 09:05:00,60.8,57.4,29.82,NE,45,3.1,3.1,89,0.00,,,0.00,,2013-03-09 08:05:00,
2013-03-09 09:10:00,61.3,57.9,29.82,East,90,1.3,1.3,89,0.00,,,0.00,,2013-03-09 08:10:00,
2013-03-09 09:15:00,61.2,57.7,29.82,SE,135,4.0,5.3,89,0.00,,,0.00,,2013-03-09 08:15:00,
2013-03-09 09:20:00,61.3,57.9,29.85,East,90,4.9,5.3,89,0.00,,,0.00,,2013-03-09 08:20:00,
2013-03-09 09:25:00,61.5,57.9,29.85,SE,135,2.6,2.6,88,0.00,,,0.00,,2013-03-09 08:25:00,
2013-03-09 09:30:00,62.1,58.5,29.85,NE,45,3.1,3.1,88,0.00,,,0.00,,2013-03-09 08:30:00,
2013-03-09 09:35:00,62.4,58.6,29.85,SE,135,2.6,6.2,88,0.00,,,0.00,,2013-03-09 08:35:00,
2013-03-09 09:40:00,62.8,58.8,29.82,SE,135,2.6,4.0,87,0.00,,,0.00,,2013-03-09 08:40:00,
2013-03-09 09:45:00,63.0,59.0,29.82,East,90,4.0,4.9,87,0.00,,,0.00,,2013-03-09 08:45:00,
2013-03-09 09:50:00,63.3,59.4,29.82,SE,135,4.4,4.4,87,0.00,,,0.00,,2013-03-09 08:50:00,
2013-03-09 09:55:00,63.3,58.6,29.82,SE,135,4.9,0.0,85,0.00,,,0.00,,2013-03-09 08:55:00,
2013-03-09 10:00:00,63.3,58.3,29.85,SE,135,4.4,0.0,84,0.00,,,0.00,,2013-03-09 09:00:00,
2013-03-09 10:05:00,63.5,58.1,29.85,SW,225,3.1,8.0,83,0.00,,,0.00,,2013-03-09 09:05:00,
2013-03-09 10:10:00,63.7,58.3,29.85,SE,135,4.0,4.0,83,0.00,,,0.00,,2013-03-09 09:10:00,
2013-03-09 10:15:00,63.7,57.9,29.85,South,180,4.0,4.0,82,0.00,,,0.00,,2013-03-09 09:15:00,
2013-03-09 10:20:00,64.0,57.9,29.85,SE,135,4.0,5.3,81,0.00,,,0.00,,2013-03-09 09:20:00,
2013-03-09 10:25:00,64.2,58.1,29.85,SE,135,4.0,4.9,81,0.00,,,0.00,,2013-03-09 09:25:00,
2013-03-09 10:30:00,64.6,58.1,29.85,SE,135,4.4,6.2,80,0.00,,,0.00,,2013-03-09 09:30:00,
2013-03-09 10:35:00,64.4,57.4,29.85,SE,135,6.7,6.7,78,0.00,,,0.00,,2013-03-09 09:35:00,
2013-03-09 10:40:00,64.4,57.4,29.88,SE,135,7.1,8.9,78,0.00,,,0.00,,2013-03-09 09:40:00,
2013-03-09 10:45:00,64.4,57.4,29.88,SE,135,5.3,8.9,78,0.00,,,0.00,,2013-03-09 09:45:00,
2013-03-09 10:50:00,64.4,57.4,29.85,SW,225,4.4,10.2,78,0.00,,,0.00,,2013-03-09 09:50:00,
2013-03-09 10:55:00,64.8,57.2,29.85,SW,225,6.2,10.2,77,0.00,,,0.00,,2013-03-09 09:55:00,
2013-03-09 11:00:00,65.5,57.6,29.85,South,180,6.2,9.8,76,0.00,,,0.00,,2013-03-09 10:00:00,
2013-03-09 11:05:00,65.5,57.6,29.85,South,180,6.2,9.8,76,0.00,,,0.00,,2013-03-09 10:05:00,
2013-03-09 11:10:00,65.7,56.7,29.85,SE,135,5.8,8.5,73,0.00,,,0.00,,2013-03-09 10:10:00,
2013-03-09 11:15:00,65.7,55.9,29.85,SE,135,4.9,8.5,71,0.00,,,0.00,,2013-03-09 10:15:00,
2013-03-09 11:20:00,65.7,55.6,29.85,SW,225,4.9,6.2,70,0.00,,,0.00,,2013-03-09 10:20:00,
2013-03-09 11:25:00,66.4,57.4,29.85,South,180,0.4,0.8,73,0.00,,,0.00,,2013-03-09 10:25:00,
2013-03-09 11:30:00,67.3,57.9,29.85,SW,225,0.8,0.8,72,0.00,,,0.00,,2013-03-09 10:30:00,
2013-03-09 11:35:00,66.9,56.3,29.85,SSW,202,5.8,5.8,69,0.00,,,0.00,,2013-03-09 10:35:00,
2013-03-09 11:40:00,66.9,55.9,29.82,SE,135,3.5,3.5,68,0.00,,,0.00,,2013-03-09 10:40:00,
2013-03-09 11:45:00,66.6,55.9,29.82,SW,225,5.3,5.8,69,0.00,,,0.00,,2013-03-09 10:45:00,
2013-03-09 11:50:00,67.3,56.7,29.82,SW,225,3.5,3.5,69,0.00,,,0.00,,2013-03-09 10:50:00,
2013-03-09 11:55:00,67.6,56.1,29.82,SW,225,2.2,5.3,67,0.00,,,0.00,,2013-03-09 10:55:00,
2013-03-09 12:00:00,67.5,55.9,29.85,SSW,202,2.6,2.6,67,0.00,,,0.00,,2013-03-09 11:00:00,
2013-03-09 12:05:00,67.8,55.9,29.85,SE,135,3.5,5.8,66,0.00,,,0.00,,2013-03-09 11:05:00,
2013-03-09 12:10:00,67.6,54.9,29.85,SE,135,4.9,5.8,64,0.00,,,0.00,,2013-03-09 11:10:00,
2013-03-09 12:15:00,68.0,54.9,29.85,SSE,157,4.4,6.2,63,0.00,,,0.00,,2013-03-09 11:15:00,
2013-03-09 12:20:00,68.4,55.2,29.85,SE,135,2.6,8.0,63,0.00,,,0.00,,2013-03-09 11:20:00,
2013-03-09 12:25:00,68.5,54.9,29.85,SE,135,8.5,11.6,62,0.00,,,0.00,,2013-03-09 11:25:00,
2013-03-09 12:30:00,68.2,55.0,29.82,SE,135,3.5,10.7,63,0.00,,,0.00,,2013-03-09 11:30:00,
2013-03-09 12:35:00,68.4,55.6,29.82,SE,135,4.0,5.3,64,0.00,,,0.00,,2013-03-09 11:35:00,
2013-03-09 12:40:00,68.9,56.5,29.82,SSE,157,3.1,3.1,65,0.00,,,0.00,,2013-03-09 11:40:00,
2013-03-09 12:45:00,68.4,55.2,29.82,SE,135,9.3,9.8,63,0.00,,,0.00,,2013-03-09 11:45:00,
2013-03-09 12:50:00,68.5,55.8,29.82,SE,135,4.4,8.0,64,0.00,,,0.00,,2013-03-09 11:50:00,
2013-03-09 12:55:00,68.9,55.8,29.82,ESE,112,3.5,10.2,63,0.00,,,0.00,,2013-03-09 11:55:00,
2013-03-09 13:00:00,68.5,55.4,29.79,SE,135,6.2,9.3,63,0.00,,,0.00,,2013-03-09 12:00:00,
2013-03-09 13:05:00,68.5,55.4,29.79,SE,135,8.5,11.6,63,0.00,,,0.00,,2013-03-09 12:05:00,
2013-03-09 13:10:00,68.5,55.4,29.82,SE,135,7.6,11.6,63,0.00,,,0.00,,2013-03-09 12:10:00,
2013-03-09 13:15:00,68.5,55.4,29.82,SE,135,3.1,4.4,63,0.00,,,0.00,,2013-03-09 12:15:00,
2013-03-09 13:20:00,68.7,55.9,29.82,SE,135,4.4,6.2,64,0.00,,,0.00,,2013-03-09 12:20:00,
2013-03-09 13:25:00,68.5,55.4,29.82,SE,135,6.2,8.0,63,0.00,,,0.00,,2013-03-09 12:25:00,
2013-03-09 13:30:00,68.4,55.2,29.82,SE,135,4.4,5.8,63,0.00,,,0.00,,2013-03-09 12:30:00,
2013-03-09 13:35:00,68.5,55.4,29.82,SE,135,7.1,10.7,63,0.00,,,0.00,,2013-03-09 12:35:00,
2013-03-09 13:40:00,68.5,54.5,29.79,SSW,202,6.7,7.6,61,0.00,,,0.00,,2013-03-09 12:40:00,
2013-03-09 13:45:00,68.9,55.2,29.79,East,90,2.6,3.1,62,0.00,,,0.00,,2013-03-09 12:45:00,
2013-03-09 13:50:00,69.6,55.0,29.79,SSW,202,5.8,6.2,60,0.00,,,0.00,,2013-03-09 12:50:00,
2013-03-09 13:55:00,69.3,53.2,29.79,South,180,8.5,11.6,57,0.00,,,0.00,,2013-03-09 12:55:00,
2013-03-09 14:00:00,69.4,54.0,29.79,South,180,5.8,11.1,58,0.00,,,0.00,,2013-03-09 13:00:00,
2013-03-09 14:05:00,69.4,54.0,29.79,South,180,5.8,11.1,58,0.00,,,0.00,,2013-03-09 13:05:00,
2013-03-09 14:10:00,69.4,54.0,29.79,SSE,157,5.8,0.0,58,0.00,,,0.00,,2013-03-09 13:10:00,
2013-03-09 14:15:00,69.6,54.5,29.79,South,180,4.9,7.6,59,0.00,,,0.00,,2013-03-09 13:15:00,
2013-03-09 14:20:00,69.8,53.8,29.82,SE,135,4.9,5.8,57,0.00,,,0.00,,2013-03-09 13:20:00,
2013-03-09 14:25:00,69.8,53.8,29.82,SE,135,7.1,7.1,57,0.00,,,0.00,,2013-03-09 13:25:00,
2013-03-09 14:30:00,69.8,53.8,29.76,South,180,8.0,9.3,57,0.00,,,0.00,,2013-03-09 13:30:00,
2013-03-09 14:35:00,70.0,54.0,29.76,South,180,6.2,6.2,57,0.00,,,0.00,,2013-03-09 13:35:00,
2013-03-09 14:40:00,70.0,53.1,29.79,South,180,8.5,11.6,55,0.00,,,0.00,,2013-03-09 13:40:00,
2013-03-09 14:45:00,70.2,53.6,29.79,East,90,7.1,12.9,56,0.00,,,0.00,,2013-03-09 13:45:00,
2013-03-09 14:55:00,70.5,54.0,29.79,NE,45,6.7,6.7,56,0.00,,,0.00,,2013-03-09 13:55:00,
2013-03-09 15:00:00,70.5,54.5,29.79,SW,225,6.2,8.9,57,0.00,,,0.00,,2013-03-09 14:00:00,
2013-03-09 15:05:00,70.5,54.5,29.79,SW,225,4.4,8.9,57,0.00,,,0.00,,2013-03-09 14:05:00,
2013-03-09 15:10:00,70.0,53.4,29.76,SW,225,7.1,8.9,56,0.00,,,0.00,,2013-03-09 14:10:00,
2013-03-09 15:15:00,70.0,54.0,29.76,South,180,6.7,11.6,57,0.00,,,0.00,,2013-03-09 14:15:00,
2013-03-09 15:20:00,70.2,54.7,29.79,South,180,7.6,11.6,58,0.00,,,0.00,,2013-03-09 14:20:00,
2013-03-09 15:25:00,70.0,54.5,29.79,SE,135,4.4,6.2,58,0.00,,,0.00,,2013-03-09 14:25:00,
2013-03-09 15:30:00,69.6,54.1,29.79,SE,135,4.9,9.3,58,0.00,,,0.00,,2013-03-09 14:30:00,
2013-03-09 15:35:00,69.3,54.7,29.79,SE,135,7.1,11.1,60,0.00,,,0.00,,2013-03-09 14:35:00,
2013-03-09 15:40:00,69.1,54.5,29.79,SE,135,6.2,8.0,60,0.00,,,0.00,,2013-03-09 14:40:00,
2013-03-09 15:45:00,69.1,55.0,29.79,SE,135,8.5,9.3,61,0.00,,,0.00,,2013-03-09 14:45:00,
2013-03-09 15:50:00,68.9,54.9,29.76,SE,135,7.6,8.0,61,0.00,,,0.00,,2013-03-09 14:50:00,
2013-03-09 15:55:00,69.3,56.1,29.76,SE,135,7.1,7.1,63,0.00,,,0.00,,2013-03-09 14:55:00,
2013-03-09 16:00:00,69.4,56.1,29.76,SE,135,7.1,7.1,63,0.00,,,0.00,,2013-03-09 15:00:00,
2013-03-09 16:05:00,69.4,56.1,29.76,SE,135,4.9,6.2,63,0.00,,,0.00,,2013-03-09 15:05:00,
2013-03-09 16:10:00,69.3,55.6,29.76,SE,135,8.9,8.9,62,0.00,,,0.00,,2013-03-09 15:10:00,
2013-03-09 16:15:00,69.3,55.6,29.76,SE,135,7.1,8.0,62,0.00,,,0.00,,2013-03-09 15:15:00,
2013-03-09 16:20:00,69.1,55.4,29.76,SE,135,5.3,12.5,62,0.00,,,0.00,,2013-03-09 15:20:00,
2013-03-09 16:25:00,68.7,54.7,29.76,SE,135,8.5,11.1,61,0.00,,,0.00,,2013-03-09 15:25:00,
2013-03-09 16:30:00,68.4,54.7,29.76,SE,135,4.4,11.1,62,0.00,,,0.00,,2013-03-09 15:30:00,
2013-03-09 16:35:00,68.5,54.9,29.76,ESE,112,4.0,8.9,62,0.00,,,0.00,,2013-03-09 15:35:00,
2013-03-09 16:40:00,68.7,55.0,29.73,SE,135,5.8,8.9,62,0.00,,,0.00,,2013-03-09 15:40:00,
2013-03-09 16:50:00,69.1,55.0,29.73,SE,135,3.5,3.5,61,0.00,,,0.00,,2013-03-09 15:50:00,
2013-03-09 16:55:00,69.1,55.4,29.73,South,180,5.3,5.3,62,0.00,,,0.00,,2013-03-09 15:55:00,
2013-03-09 17:00:00,68.7,54.1,29.79,SE,135,8.5,13.4,60,0.00,,,0.00,,2013-03-09 16:00:00,
2013-03-09 17:05:00,68.7,54.1,29.79,SE,135,8.5,13.4,60,0.00,,,0.00,,2013-03-09 16:05:00,
2013-03-09 17:10:00,68.0,54.0,29.76,SE,135,8.0,13.4,61,0.00,,,0.00,,2013-03-09 16:10:00,
2013-03-09 17:15:00,67.6,54.1,29.76,SE,135,8.5,13.4,62,0.00,,,0.00,,2013-03-09 16:15:00,
2013-03-09 17:20:00,67.3,56.3,29.76,South,180,6.7,7.6,68,0.00,,,0.00,,2013-03-09 16:20:00,
2013-03-09 17:25:00,66.9,57.2,29.76,SW,225,6.7,8.9,71,0.00,,,0.00,,2013-03-09 16:25:00,
2013-03-09 17:30:00,66.6,56.8,29.76,SE,135,7.6,12.9,71,0.00,,,0.00,,2013-03-09 16:30:00,
2013-03-09 17:35:00,66.0,56.7,29.76,SSE,157,7.1,9.3,72,0.00,,,0.00,,2013-03-09 16:35:00,
2013-03-09 17:40:00,65.5,56.8,29.76,South,180,6.2,9.3,74,0.00,,,0.00,,2013-03-09 16:40:00,
2013-03-09 17:45:00,65.1,56.5,29.76,South,180,6.7,9.3,74,0.00,,,0.00,,2013-03-09 16:45:00,
2013-03-09 17:50:00,64.8,56.5,29.73,SW,225,6.7,8.0,75,0.00,,,0.00,,2013-03-09 16:50:00,
2013-03-09 17:55:00,64.6,56.8,29.73,SE,135,5.3,5.8,76,0.00,,,0.00,,2013-03-09 16:55:00,
2013-03-09 18:00:00,64.2,56.8,29.76,SE,135,5.8,8.5,77,0.00,,,0.00,,2013-03-09 17:00:00,
2013-03-09 18:05:00,63.9,56.8,29.76,SSE,157,8.0,8.0,78,0.00,,,0.00,,2013-03-09 17:05:00,
2013-03-09 18:10:00,63.7,56.7,29.73,SE,135,7.6,8.5,78,0.00,,,0.00,,2013-03-09 17:10:00,
2013-03-09 18:15:00,63.3,56.7,29.73,SE,135,7.6,8.5,79,0.00,,,0.00,,2013-03-09 17:15:00,
2013-03-09 18:20:00,63.1,56.5,29.76,SE,135,7.1,10.2,79,0.00,,,0.00,,2013-03-09 17:20:00,
2013-03-09 18:25:00,63.0,56.3,29.76,SE,135,6.7,11.1,79,0.00,,,0.00,,2013-03-09 17:25:00,
2013-03-09 18:35:00,62.6,56.3,29.76,SE,135,5.8,8.9,80,0.00,,,0.00,,2013-03-09 17:35:00,
2013-03-09 18:40:00,62.4,56.1,29.76,South,180,6.7,10.2,80,-99.99,,,0.00,,2013-03-09 17:40:00,
2013-03-09 18:45:00,62.4,56.5,29.76,SE,135,6.7,6.7,81,-99.99,,,0.00,,2013-03-09 17:45:00,
2013-03-09 18:50:00,62.4,56.5,29.73,SE,135,8.0,11.6,81,-99.99,,,0.00,,2013-03-09 17:50:00,
2013-03-09 18:55:00,62.4,56.8,29.73,SW,225,8.9,13.4,82,-99.99,,,0.00,,2013-03-09 17:55:00,
2013-03-09 19:00:00,62.4,56.8,29.76,SE,135,10.2,11.6,82,-99.99,,,0.00,,2013-03-09 18:00:00,
2013-03-09 19:05:00,62.2,56.7,29.76,East,90,4.9,8.9,82,-99.99,,,0.00,,2013-03-09 18:05:00,
2013-03-09 19:10:00,62.2,56.7,29.76,ESE,112,6.7,11.6,82,-99.99,,,0.00,,2013-03-09 18:10:00,
2013-03-09 19:15:00,62.2,56.7,29.76,SE,135,4.9,4.9,82,-99.99,,,0.00,,2013-03-09 18:15:00,
2013-03-09 19:20:00,62.2,56.7,29.76,SE,135,4.9,8.0,82,-99.99,,,0.00,,2013-03-09 18:20:00,
2013-03-09 19:25:00,62.1,56.5,29.76,SE,135,5.3,8.9,82,-99.99,,,0.00,,2013-03-09 18:25:00,
2013-03-09 19:30:00,62.1,56.7,29.79,SE,135,7.6,8.9,83,-99.99,,,0.00,,2013-03-09 18:30:00,
2013-03-09 19:35:00,62.1,56.7,29.79,SE,135,5.8,11.1,83,-99.99,,,0.00,,2013-03-09 18:35:00,
2013-03-09 19:40:00,61.9,56.5,29.79,SE,135,7.1,11.6,83,-99.99,,,0.00,,2013-03-09 18:40:00,
2013-03-09 19:45:00,61.9,56.5,29.79,South,180,6.2,9.3,83,-99.99,,,0.00,,2013-03-09 18:45:00,
2013-03-09 19:50:00,61.9,56.8,29.79,South,180,5.3,6.2,84,-99.99,,,0.00,,2013-03-09 18:50:00,
2013-03-09 19:55:00,61.9,56.8,29.79,SE,135,5.3,5.3,84,-99.99,,,0.00,,2013-03-09 18:55:00,
2013-03-09 20:00:00,61.9,56.8,29.79,East,90,5.8,8.0,84,-99.99,,,0.00,,2013-03-09 19:00:00,
2013-03-09 20:10:00,61.9,56.8,29.79,ESE,112,5.8,0.0,84,-99.99,,,0.00,,2013-03-09 19:10:00,
2013-03-09 20:15:00,61.9,56.8,29.79,SE,135,8.0,8.0,84,-99.99,,,0.00,,2013-03-09 19:15:00,